Back to catalog

LEMUR 2 JOEL

LostScienceLEO
NORAD 40932·PAYLOAD·🇺🇸 United States

Launched Sep 28, 2015 from Satish Dhawan Space Centre

Loading…

Next Passes (next 24 hours)

TLE

StaleSource: Space-Track

Epoch: Jan 6, 2024, 20:11 UTC

1 40932U 15052C   24006.84122350  .00004780  00000-0  48353-3 0  9993
2 40932   6.0091  16.6023 0011392  49.7308 310.3816 14.83659809447887

Track LEMUR 2 JOEL in real time with AllMySat

Download on the App Store